Regional Weather Roundup
Issued by NWS

Home | Current Version | Previous Version | Graphics & Text | Print | Product List | Glossary Off
Versions: 1 2 3 4 5 6 7 8 9 10 11 12 13 14 15 16 17 18 19 20 21 22 23 24 25 26 27 28 29 30 31 32 33 34 35 36 37 38 39 40 41 42 43 44 45 46 47 48 49 50

000
ASUS43 KMKX 191600
RWRWI

WISCONSIN REGIONAL WEATHER ROUNDUP
NATIONAL WEATHER SERVICE MILWAUKEE/SULLIVAN WI
1000 AM CST THU JAN 19 2017

NOTE: "FAIR" INDICATES FEW OR NO CLOUDS BELOW 12,000 FEET WITH NO
SIGNIFICANT WEATHER AND/OR OBSTRUCTIONS TO VISIBILITY.

WIZ001-002-006>008-014>016-023>028-191700-
NORTHWEST WISCONSIN

CITY           SKY/WX    TMP DP  RH WIND       PRES   REMARKS
SUPERIOR ARPT  MOSUNNY   37  32  84 SW10      29.79F WCI  29
ASHLAND          N/A     37  33  85 S7        29.82S WCI  32
HAYWARD        SUNNY     35  30  82 S8        29.82S WCI  29
SIREN          SUNNY     34  32  93 S9        29.80F WCI  26
CUMBERLAND     FOG       30  30 100 SE6       29.82F VSB 3/4 WCI  24
RICE LAKE      FOG       32  32  99 SE7       29.85F VSB 1/4 WCI  25
CHETEK         NOT AVBL
LADYSMITH      FOG       34  33  98 S6        29.88S VSB 1/2 WCI  28
EAU CLAIRE     NOT AVBL
MENOMONIE        N/A    N/A N/A N/A MISG        N/A
NEW RICHMOND   SUNNY     34  31  89 SE6       29.82S WCI  29
OSCEOLA        SUNNY     33  33 100 SE7       29.83F WCI  27
$$

WIZ003>005-009-010-017-018-191700-
NORTH CENTRAL WISCONSIN

CITY           SKY/WX    TMP DP  RH WIND       PRES   REMARKS
MANITOWISH WTR NOT AVBL
ARBOR VITAE    FOG       34  33  96 S8        29.85S VSB 1/2 WCI  27
WOODRUFF       FOG       34  33  96 S8        29.85S VSB 1/2 WCI  27
RHINELANDER    FOG       32  32 100 SW9       29.87F VSB 1/4 WCI  24
EAGLE RIVER    FOG       32  32 100 SW5       29.86S VSB 3/4 WCI  27
LAND O LAKES   FOG       33  33 100 S6        29.86S VSB 1/2 WCI  27
PHILLIPS       CLOUDY    32  32 100 S6        29.85F FOG     WCI  26
TOMAHAWK       FOG       32  31  97 S3        29.88F VSB 1
MEDFORD        FOG       31  31 100 SE3       29.87F VSB<1/4
MERRILL        FOG       32  32 100 CALM        N/A  VSB 3/4
$$

WIZ029-030-035-036-043>047-191700-
CENTRAL WISCONSIN

CITY           SKY/WX    TMP DP  RH WIND       PRES   REMARKS
WAUSAU         FOG       32  32 100 CALM      29.88F VSB<1/4
MOSINEE        FOG       30  30 100 CALM      29.90F VSB 1/8
MARSHFIELD     FOG       31  30  96 SE7       29.89R VSB<1/4 WCI  24
STEVENS POINT  FOG       30  30 100 E3        29.91S VSB<1/4
WAUPACA        FOG       35  33  94 CALM      29.95R VSB 1/2
WAUTOMA        FOG       34  33  96 SE3       29.94S VSB 1/2
WISC RAPIDS    CLOUDY    32  32 100 MISG      29.93R
CAMP DOUGLAS   FOG       32  32 100 SE7       29.91S VSB 3/4 WCI  26
$$

WIZ011>013-019>022-031-037>040-048>050-191700-
NORTHEAST WISCONSIN

CITY           SKY/WX    TMP DP  RH WIND       PRES   REMARKS
ANTIGO         SNOW      30  30 100 CALM      29.90F VSB 1/4
SHAWANO        FOG       34  33  94 CALM      29.94S VSB 1
OCONTO         NOT AVBL
STURGEON BAY   FOG       33  32  96 S8        29.97S VSB 1/2 WCI  26
GREEN BAY      FOG       34  34 100 CALM      29.95F VSB 3/4
MANITOWOC      CLOUDY    34  32  93 S9        29.99R FOG     WCI  26
APPLETON       FOG       32  32 100 S5        29.93R VSB 1/8 WCI  27
CLINTONVILLE   FOG       32  32 100 CALM      29.94S VSB 1/2
OSHKOSH        FOG       32  31  96 S10       29.95R VSB 1/4 WCI  24
$$

WIZ032>034-041-042-053>061-191700-
SOUTHWEST WISCONSIN

CITY           SKY/WX    TMP DP  RH WIND       PRES   REMARKS
LA CROSSE      CLOUDY    35  32  88 S12       29.91S FOG     WCI  27
SPARTA         SUNNY     31  31 100 CALM      29.92R FOG
VIROQUA        CLOUDY    31  31 100 SE5       29.89F VSB<1/4 WCI  27
BOSCOBEL       CLOUDY    34  33  96 SE3       29.93F FOG
PRAIRIE DU CHI FOG       32  32  99 CALM      29.92F VSB 1
PLATTEVILLE    CLOUDY    31  31 100 SE7       29.93S VSB<1/4 WCI  25
$$

WIZ056-057-062-063-064-067-068-191700-
SOUTH CENTRAL WISCONSIN

CITY           SKY/WX    TMP DP  RH WIND       PRES   REMARKS
REEDSBURG      FOG       32  32 100 S6        29.93R VSB 1/4 WCI  26
BARABOO/DELLS  FOG       32  32  99 S3        29.92F VSB 1/4
LONE ROCK      NOT AVBL
MINERAL POINT  FOG       32  32 100 SE7       29.92S VSB<1/4 WCI  26
MADISON        FOG       32  32 100 S8        29.95S VSB 1/8 WCI  25
MIDDLETON      CLOUDY    34  34 100 S7        29.94S VSB 1/4 WCI  28
WATERTOWN      FOG       32  32 100 SE3       29.96S VSB 1/4
MONROE         FOG       32  32 100 SE3       29.93S VSB<1/4
JANESVILLE     FOG       34  34 100 SE7       29.96R VSB 1/4 WCI  28
$$

WIZ051-052-058>065-066-070>072-191700-
SOUTHEAST WISCONSIN

CITY           SKY/WX    TMP DP  RH WIND       PRES   REMARKS
MILWAUKEE      FOG       34  32  92 S6        29.99S VSB 1/4 WCI  29
WAUKESHA       FOG       30  30 100 CALM      29.98S VSB 1/8
MILWAUKEE/TIMM FOG       34  30  86 SW3       30.00R VSB 1/2
RACINE         FOG       34  34 100 S3        30.01R VSB 1/4
KENOSHA        FOG       34  33  96 SW6       29.99R VSB<1/4 WCI  29
FOND DU LAC    FOG       32  30  92 S9        29.96R VSB 1/2 WCI  24
SHEBOYGAN      CLOUDY    33  32  96 S6        29.98S FOG     WCI  28
WEST BEND      SNOW      32  32 100 CALM      29.97F VSB<1/4
JUNEAU         FOG       31  31  99 S6        29.97R VSB<1/4 WCI  26
$$

LSZ147-162-191700-
LAKE SUPERIOR

STATION/POSITION TIME  TEMP    WIND        PRES    WAVE
                       AIR SEA DIR/SP/G            HT/PER
                 (UTC) (F)     (DEG/KT/KT) (MB)    (FT/S)
DEVILS ISLAND    1500   35     180/  7/ 11 1010.4F
PORT WING        1540   38     200/  4/  5 1009.5S
SAXON HARBOR     1540   38     170/  3/  6 1009.8S
$$

LMZ867-665-643>646-191700-
LAKE MICHIGAN

STATION/POSITION TIME  TEMP    WIND        PRES    WAVE
                       AIR SEA DIR/SP/G            HT/PER
                 (UTC) (F)     (DEG/KT/KT) (MB)    (FT/S)
NORTHPORT PIER   1540   32     200/  3/  8 1014.6R
SISTER BAY       1535   33     230/  7/  9   N/A
KEWAUNEE LAKESHO 1530   33     190/  1/  3 1014.5F
SHEBOYGAN LAKESH 1500   33     150/  8/  9 1015.9R
PORT WASHINGTON  1540   34     180/  7/  9 1016.3F
MILWAUKEE LAKESH 1530   33     180/  4/  5   N/A
KENOSHA   LAKESH 1500   33     200/  5/  8 1015.6
$$

TC  - TEMPERATURE IN CELSIUS
VSB - VISIBILITY IN STATUTE MILES
WCI - WIND CHILL INDEX
HX  - HEAT INDEX




USA.gov is the U.S. government's official web portal to all federal, state and local government web resources and services.